Powrót do katalogu

WESTFORD NEEDLES

LostPO
NORAD 19299·DEBRIS·🇺🇸 United States

Wystrzelony May 9, 1963 z Vandenberg Space Force Base

Loading…

Następne Przeloty (najbliższe 24 godziny)

TLE

NieaktualneSource: Space-Track

Epoka: Dec 3, 2025, 07:52 UTC

1 19299U 63014EL  25337.32789471 -.00000152  00000-0 -68871-1 0  9996
2 19299  87.2571 107.3487 0266974  48.5318 313.8137  8.67219330211442

Śledź WESTFORD NEEDLES w czasie rzeczywistym z AllMySat

Download on the App Store